FENGYUN 1C DEB, 40690

Orbit data source: Space-Track

FENGYUN 1C DEB, 40690 is space debris in SSO originally from a launch on Mon, 10 May 1999 UTC launched from the Taiyaun Space Center, China (TSC). Fengyun 1C debris stems from the Chinese weather satellite Fengyun-1C, which was intentionally destroyed by a Chinese anti-satellite missile in 2007. This event dramatically increased the amount of space debris, with thousands of trackable fragments posing hazards to satellites and human spaceflight. The Fengyun 1C debris cloud has become a focal point in discussions about space sustainability and the need for international regulations to prevent the creation of new debris.

Loading next visibility...
FENGYUN 1C DEB details
Identifier
40690, 1999-025EWW
Orbit
SSO
Last TLE update3 days ago
Origin
Flag of CNCASC (CN / PRC)
ManufacturerUnknown
MissionSpacecraft
Bus & MotorUnknown
MassUnknown
Launch date (UTC)
1999-05-10 (26 years ago)
Launch vehicleUnknown
Launch site
Taiyaun Space Center, China (TSC)
Object type
Payload
Rocket body
Debris
Shape & HBRUnknown
Radar Cross SectionSmall (<0.1 m²)

Expand to show TLE details & history

TLE from 3 days ago
0 FENGYUN 1C DEB
1 40690U 99025EWW 24358.88059835  .00000958  00000-0  71776-3 0  9995
2 40690  99.4581  19.3341 0093887  24.4408 336.1161 13.95113776564408
Epoch: 2024-12-23T21:08Z
Definitive object data (Epoch: 2024-12-23T21:08:03.697Z)
Latitude-0.00007°
Longitude-30.57799°
Altitude851.142 km
Speed7.459 km/s
True Right ascension01h 17m 20s
True Declination0° 00' 00"
Sunlit
Object was in daylight at TLE epoch
Visualization TLE readout
Latitude7.61954°
Longitude153.29999°
Altitude974.663 km
Speed7.334 km/s
Apparent Right ascension16h 17m 49s
Apparent Declination-25° 43' 58"
Sunlit
Object is in daylight
Visualization observer readout
Local Sidereal Time09:32:51
Azimuth104.003° ESE
Elevation-24.41°
Doppler factor1
Orbital elements
Apogee altitude976.4 km
Perigee altitude839.586 km
Semi-major axis7,286.13 km
Eccentricity0.0093887
Inclination99.4581°
RAAN19.3341°
Arg. of periapsis24.4408°
True anomaly335.67578°
Mean anomaly336.1161°
Eccentric anomaly335.89641°
Mean motion3.48978 °/min
BSTAR0.00071776
Orbital period103.16 mins
Loading maneuver chart data...
Loading historical data...
Loading historical data...
Loading historical data...
Loading historical data...
Loading historical data...
Loading historical data...
Loading historical data...

FENGYUN 1C DEB Visibility forecast

Observer location: undefined°, undefined

Span
Click to sort rows by Start time (UTC) header in descending order
Start Az.
Max El. time (UTC)
Max El. Az.
Max El.
End time (UTC)
End Az.
8 mins2024-12-26 13:25:42.918Z49.184° ENE2024-12-26 13:29:42.918Z99.425° ESE22.362°2024-12-26 13:33:42.918Z144.704° SSE
9 mins2024-12-26 15:07:42.918Z355.57° N2024-12-26 15:11:42.918Z281.523° WNW37.041°2024-12-26 15:16:42.918Z219.042° SW
8 mins2024-12-27 01:00:42.918Z133.267° SE2024-12-27 01:03:42.918Z77.141° E36.714°2024-12-27 01:08:42.918Z358.344° N
6 mins2024-12-27 02:43:42.918Z233.8° WSW2024-12-27 02:45:42.918Z261.056° W19.515°2024-12-27 02:49:42.918Z311.167° NW
|